Helicity
32 2 -15 -19 -3 -10 29 25 18 31 19 10 -1 -2 3 22 16 3 13 5 33 25 4 -4 -5 -1 10 10 6 7 4 6 11 28 34 22 15 23 24 32 41 37 36 42 32 27 28 40 51
22 7 -12 -14 -6 15 33 26 22 25 15 6 -11 -14 -12 -1 -5 9 14 23 23 12 10 8 3 8 5 10 11 1 -0 6 16 15 34 49 46 43 42 43 40 41 41 42 37 33 33 41 48
10 24 -10 12 1 15 24 21 21 15 10 9 -13 -17 -11 -9 -28 8 12 22 19 19 8 14 17 16 16 17 13 6 5 11 11 13 10 21 38 49 63 59 30 28 30 29 32 36 39 45 56
7 57 62 30 13 1 10 6 6 -4 -5 1 -3 -19 -17 -14 -3 8 26 35 48 39 29 24 37 39 26 19 15 8 3 15 28 18 23 25 38 42 69 58 36 59 58 50 40 36 35 40 50
61 51 41 45 15 8 -7 -2 19 -1 -6 -2 8 -14 -10 13 16 32 46 46 56 39 25 35 39 30 33 24 10 -0 -0 7 14 22 26 30 46 54 54 55 46 46 46 55 46 39 31 34 46
49 43 39 21 6 -0 2 5 21 4 7 14 12 35 4 28 36 28 43 36 30 50 38 39 43 43 34 31 17 5 -4 -0 6 9 16 27 45 68 76 45 46 57 50 60 62 43 34 39 49
17 41 27 38 16 8 8 35 16 33 41 22 47 37 11 20 25 40 41 49 48 44 45 40 32 33 24 22 19 19 21 6 16 18 20 14 18 47 65 61 32 28 43 55 65 53 71 72 64
22 45 60 26 35 -6 21 29 31 54 33 67 62 21 13 -5 54 73 83 74 56 39 38 42 35 36 26 25 25 14 27 37 27 33 42 34 36 43 17 10 1 6 21 38 58 64 74 89 84
29 50 42 21 57 -3 45 49 36 43 62 60 54 54 30 59 118 95 89 74 60 35 43 45 38 36 31 31 24 22 17 32 39 37 44 46 51 55 23 9 8 3 17 34 63 63 74 79 103
39 35 14 28 36 26 59 56 58 56 54 45 57 62 63 120 112 99 100 78 69 47 37 42 43 36 33 33 30 31 21 18 25 35 38 46 64 54 41 32 40 39 45 35 48 63 61 101 81
30 23 29 34 46 57 63 46 59 55 37 45 55 68 93 92 96 83 72 74 60 46 42 39 37 39 35 32 34 31 34 25 23 31 32 43 54 56 43 36 38 35 43 39 50 59 61 71 77
36 36 53 47 57 59 49 49 29 52 37 32 39 76 100 89 98 81 64 56 61 48 32 41 42 49 44 45 39 47 50 36 33 30 37 38 41 46 49 43 43 47 50 53 48 64 58 56 68
52 44 66 65 68 59 43 22 10 -1 -13 5 57 87 81 69 61 54 50 42 40 44 40 45 55 52 56 55 49 54 57 50 41 35 38 36 45 47 49 49 47 45 51 47 53 53 63 68 69
47 63 54 58 58 49 25 11 21 2 5 38 36 41 45 53 52 48 59 47 52 32 32 64 55 59 66 66 56 64 68 65 57 49 46 40 42 47 62 70 72 71 74 59 65 65 81 81 87
61 52 37 40 51 41 18 4 14 14 31 16 16 25 34 28 45 42 47 48 59 54 59 72 72 74 75 80 78 73 73 73 72 61 57 56 58 63 75 81 82 84 80 80 86 86 89 100 114
90 73 75 34 41 37 22 21 6 46 42 19 7 15 25 27 33 26 29 49 60 96 109 104 105 93 86 88 89 88 83 78 77 71 68 71 71 76 87 95 93 96 97 97 101 104 98 102 111
119 91 86 60 58 34 38 25 14 50 48 22 31 43 50 36 51 50 60 77 85 103 139 129 119 109 109 119 112 108 99 91 86 83 82 77 79 80 89 91 92 96 100 105 104 113 115 116 113
93 101 82 77 47 56 59 46 52 53 89 83 92 106 103 72 43 69 54 69 63 87 137 161 149 137 128 130 132 132 123 105 98 92 87 87 81 87 91 92 92 95 98 98 101 110 120 119 122
103 93 77 82 103 70 60 44 37 65 102 103 129 173 158 111 59 83 63 79 84 95 137 159 166 139 164 159 149 131 105 102 98 92 97 93 83 85 93 98 96 99 93 92 92 100 104 107 110
120 119 96 89 102 84 85 13 42 79 84 105 96 135 167 174 127 114 94 102 84 103 126 151 140 154 127 147 143 120 125 107 108 101 95 92 90 92 92 95 92 93 101 99 100 97 98 98 105
140 147 133 124 115 100 79 43 59 101 83 71 61 72 53 104 154 113 118 134 120 110 129 135 145 142 131 141 171 161 147 121 114 103 95 89 96 101 105 101 99 98 98 96 94 89 90 91 99
138 128 157 153 158 131 156 134 52 69 55 74 91 93 81 88 95 124 134 135 116 99 128 127 138 140 132 155 155 140 124 111 92 110 116 114 106 105 109 108 104 100 103 98 86 84 84 98 87
173 207 193 176 190 196 175 268 103 120 88 66 89 103 101 79 98 123 138 126 126 132 136 126 132 151 154 154 128 115 99 91 118 124 114 116 119 118 118 119 117 116 109 95 83 82 82 88 93
173 243 224 209 200 231 205 247 210 152 99 60 74 70 103 95 169 169 156 156 120 129 145 147 152 147 140 139 107 90 73 92 113 119 119 121 128 138 139 135 130 122 114 103 92 90 88 87 90
252 244 235 263 338 284 239 279 279 148 66 104 117 149 143 139 147 138 141 140 129 125 144 159 167 140 139 121 109 76 52 76 97 112 126 131 139 146 150 168 144 127 114 106 102 101 101 100 102
215 228 257 222 240 188 225 270 259 157 175 163 149 164 153 121 127 147 145 134 130 129 161 180 172 144 150 131 109 81 66 105 121 134 135 135 142 157 178 155 145 130 114 109 111 113 106 107 111
244 328 261 279 242 284 333 360 296 181 154 172 182 99 43 87 144 161 153 147 149 155 166 169 177 153 155 131 125 91 106 107 116 134 152 151 158 181 170 157 152 140 126 114 116 114 113 116 116
273 219 345 389 329 303 308 300 260 102 21 -9 -5 29 77 100 120 149 156 162 173 180 198 206 177 159 149 139 124 127 153 121 126 167 146 156 177 166 161 158 150 148 138 128 135 138 121 122 129
375 409 395 343 391 371 239 293 154 178 211 216 128 158 124 122 105 147 152 148 166 208 229 241 209 161 157 138 147 169 165 149 162 150 135 171 168 153 152 153 151 142 134 131 136 133 152 146 175
312 321 404 420 400 428 414 265 255 281 338 329 230 147 69 89 144 138 171 177 209 228 243 251 210 166 134 160 185 178 183 170 154 138 145 168 149 160 155 157 158 151 130 117 119 130 164 229 239
Wind_Speed
29 32 37 35 35 34 36 36 35 36 34 32 31 36 39 35 32 31 34 30 34 35 34 34 34 34 35 35 35 35 35 33 33 33 33 33 31 32 34 34 34 34 35 37 37 38 37 37 37
31 36 34 36 33 34 34 35 37 35 35 42 35 33 32 33 33 36 34 35 37 36 34 34 34 35 34 34 34 35 35 35 33 32 32 31 30 30 32 32 33 34 35 36 36 36 37 37 37
35 29 32 22 31 36 36 38 38 35 36 34 33 32 33 34 33 35 33 34 35 35 34 34 34 35 35 34 35 36 36 35 33 32 31 31 30 29 29 30 31 31 32 34 36 36 37 37 37
36 29 27 27 26 21 34 35 36 35 34 33 33 32 32 32 33 31 33 32 33 34 34 35 35 35 35 35 35 35 35 34 33 31 30 29 28 26 25 27 31 31 30 33 35 36 36 37 37
26 25 25 26 29 25 24 29 31 33 32 32 31 28 29 29 30 32 33 32 31 32 33 34 35 34 33 33 33 32 31 31 30 30 29 28 27 27 24 24 27 29 29 31 33 36 37 37 37
29 26 28 30 25 23 23 20 24 30 29 27 27 27 26 26 28 30 31 30 30 32 32 33 33 34 34 33 33 32 31 28 28 28 27 27 27 27 25 24 24 27 28 28 31 35 39 41 40
31 22 21 23 22 32 21 17 26 20 19 21 24 24 23 26 27 27 27 28 29 30 31 31 31 33 33 33 33 32 32 31 30 29 29 28 25 24 23 24 23 23 23 29 32 30 35 41 42
29 25 22 22 17 40 21 20 24 20 19 24 21 22 24 26 25 25 25 25 26 26 28 29 29 31 31 32 32 32 33 34 34 34 33 32 30 27 24 24 24 22 22 21 29 32 32 37 42
29 25 18 20 19 34 20 21 26 30 27 20 17 22 25 23 24 23 22 21 22 22 24 26 27 28 30 31 31 33 34 35 35 35 34 33 33 31 30 28 25 23 22 25 33 37 41 35 34
30 26 23 22 18 27 20 24 25 31 29 22 19 25 21 20 21 20 17 19 19 19 20 22 24 25 27 29 30 31 31 31 32 33 33 34 33 33 31 31 29 27 28 26 28 34 41 39 36
32 29 26 25 24 27 27 34 30 29 23 12 10 12 14 16 16 15 14 16 18 17 17 19 21 23 24 26 28 29 30 31 31 31 30 32 32 32 33 31 32 31 32 31 34 37 36 29 27
35 32 28 23 26 29 31 35 36 22 24 31 16 13 14 13 13 14 12 14 15 12 12 14 16 20 21 24 25 26 29 29 31 31 31 30 29 31 32 33 33 33 34 35 36 36 36 29 27
35 31 31 28 28 32 34 35 35 34 27 25 21 12 9 10 9 9 10 11 11 8 8 10 13 17 20 22 24 24 26 29 32 32 33 32 31 32 33 36 36 36 37 37 39 39 37 33 29
34 31 32 32 32 33 37 34 34 30 36 13 16 12 7 6 6 8 6 4 7 6 4 9 10 16 19 20 21 23 25 28 32 33 34 34 33 33 35 37 38 39 40 40 40 40 40 36 32
30 35 33 32 34 36 40 42 25 30 31 13 9 12 11 6 11 3 4 6 1 4 5 4 8 15 17 19 21 23 25 28 31 33 35 34 35 34 34 36 38 40 41 42 41 41 40 40 39
34 36 38 35 33 33 36 42 38 34 26 26 16 15 17 18 14 12 13 11 8 6 3 3 10 16 18 19 21 24 27 29 30 32 33 35 36 36 35 36 38 38 40 43 42 42 42 43 43
36 37 37 43 33 33 31 41 35 35 31 29 26 22 22 24 22 15 14 9 5 3 2 5 11 13 17 20 23 25 26 27 29 32 32 35 37 37 35 35 36 38 42 44 44 44 44 43 44
33 37 37 40 36 36 41 22 24 33 32 27 28 25 23 22 19 22 24 15 12 8 6 7 11 14 16 18 21 24 25 27 28 28 32 35 37 39 37 35 35 37 41 42 42 43 41 42 42
34 38 41 44 42 47 47 59 56 61 46 32 29 26 25 23 23 24 26 21 18 13 8 7 7 7 9 15 19 22 24 26 27 30 33 36 38 39 38 37 37 40 40 42 40 41 41 42 41
32 39 42 47 43 49 60 83 78 62 50 43 33 28 26 24 23 22 21 22 20 16 10 8 7 6 7 12 18 25 25 27 30 32 34 37 39 40 39 38 37 38 40 41 41 41 43 41 40
36 38 43 46 52 50 65 73 62 46 46 49 44 41 34 21 20 18 18 18 19 16 11 9 7 5 5 10 18 26 29 31 33 34 35 36 38 38 38 36 37 37 37 39 39 40 38 40 39
43 39 44 49 55 59 52 74 68 58 57 51 45 41 39 28 17 18 19 22 22 21 16 13 10 8 8 9 14 22 28 32 34 36 36 36 36 37 36 36 36 35 35 36 37 37 39 38 39
43 38 42 48 54 62 53 60 62 54 54 53 41 28 22 17 16 18 21 24 24 22 18 16 16 15 12 12 15 22 30 33 38 39 41 41 39 39 38 36 35 36 35 35 35 37 39 39 40
24 40 47 51 55 74 56 57 62 45 50 52 42 37 32 27 22 23 25 27 29 29 26 22 21 21 17 17 19 25 31 36 39 42 46 46 44 44 41 38 37 36 34 34 34 37 39 40 39
40 44 60 67 62 75 58 61 55 43 42 41 49 54 49 36 32 33 33 33 34 34 31 26 23 23 21 22 25 28 32 36 41 46 49 49 49 48 44 40 38 37 35 34 35 38 40 39 38
40 42 51 75 71 74 57 66 65 43 50 44 55 60 54 41 35 36 37 36 36 35 30 25 23 24 23 25 27 30 35 39 44 47 50 52 51 49 44 40 37 36 34 34 36 39 38 37 37
49 54 50 72 72 86 75 78 81 65 60 54 49 48 45 41 30 34 35 35 35 33 29 25 24 26 26 27 30 35 39 43 48 49 52 54 53 50 45 40 37 34 33 34 37 39 38 36 35
50 37 62 59 87 98 88 88 82 73 67 56 45 39 44 47 41 34 33 34 33 32 30 27 28 28 29 32 35 38 42 46 50 52 55 56 53 48 44 39 35 33 32 35 38 39 37 37 35
56 61 58 59 66 92 117 96 55 64 57 56 47 49 52 47 41 36 38 38 37 35 33 30 30 31 32 34 37 40 44 49 53 55 56 53 50 45 41 36 33 32 34 36 38 39 37 36 37
62 66 59 75 81 77 89 107 55 53 55 55 62 67 57 57 50 43 40 39 40 39 36 34 32 34 35 36 38 42 47 51 54 57 55 48 45 42 38 33 31 33 36 37 37 37 39 39 45
Wind_Direction
190 173 145 155 145 149 157 163 164 159 159 161 157 135 121 130 127 125 126 125 116 114 113 104 100 98 91 92 89 87 86 92 92 69 3 349 346 352 353 349 351 348 350 360 357 359 2 7 8
187 167 164 126 154 164 163 164 161 165 159 123 142 142 139 127 123 110 106 105 103 106 107 102 95 88 100 101 101 100 97 93 91 97 77 29 1 354 5 356 351 354 352 347 348 351 356 359 3
178 199 100 80 108 161 146 153 140 154 147 146 138 141 119 113 118 102 107 96 91 91 96 93 85 86 97 103 100 100 98 92 92 89 93 75 52 23 6 6 5 358 352 352 351 351 351 354 355
191 245 347 348 323 56 151 113 131 127 130 130 121 110 121 123 113 108 99 89 81 78 85 82 77 82 88 92 94 100 103 93 86 93 85 85 78 63 37 15 348 11 351 348 345 349 354 353 352
309 341 353 325 301 333 62 99 108 134 138 115 110 114 107 105 102 98 103 91 79 75 80 73 72 85 92 99 100 104 99 100 98 90 83 81 75 65 64 48 11 350 349 346 348 347 347 349 352
293 320 332 300 333 351 342 48 88 133 114 94 98 84 101 83 90 103 103 93 85 80 76 67 71 76 81 88 95 95 92 94 95 99 91 87 79 63 69 78 56 5 338 343 346 350 347 340 341
286 4 51 347 348 297 354 19 308 87 31 93 64 70 91 112 116 101 104 93 85 77 79 71 73 72 71 70 79 80 74 73 69 72 72 74 85 86 80 69 88 83 36 343 332 8 354 341 337
286 340 12 351 48 251 343 342 355 8 29 14 46 65 58 127 105 91 87 90 90 78 77 64 63 62 63 66 61 62 61 55 56 52 53 53 54 65 76 82 67 74 61 43 356 358 1 351 340
299 348 26 356 357 301 344 345 342 333 342 6 34 16 22 91 89 85 75 80 85 81 76 61 58 55 59 64 62 59 52 50 44 47 42 41 41 43 47 47 57 66 52 24 355 348 340 350 352
313 343 356 347 6 342 359 342 347 328 331 349 2 346 19 87 97 99 88 99 90 84 68 55 53 66 61 54 49 47 52 57 51 46 39 32 31 33 31 29 31 26 21 20 12 353 341 338 345
318 339 345 340 340 340 337 323 336 336 343 23 36 34 60 91 97 101 94 105 113 88 57 48 63 56 44 47 48 47 49 50 46 40 34 27 22 17 12 12 7 8 7 4 359 357 358 359 355
318 329 337 344 338 336 332 328 324 340 339 335 13 63 84 94 103 111 100 107 112 81 58 55 57 40 41 41 41 42 35 38 32 31 27 27 23 15 9 3 2 360 358 358 357 357 359 4 3
317 327 330 337 336 330 330 329 325 323 334 333 348 31 81 86 95 88 82 98 107 88 59 52 36 27 25 25 33 34 27 27 24 25 21 18 14 5 3 358 356 354 353 351 348 345 345 348 348
324 323 324 330 333 332 328 331 331 339 335 355 349 2 38 66 93 27 42 82 118 111 52 18 21 13 13 19 20 22 21 22 17 18 13 16 11 7 360 354 350 348 346 344 343 340 338 338 341
332 319 326 329 327 324 327 318 332 333 334 3 3 353 356 360 344 327 330 327 326 339 14 55 27 3 5 9 11 15 16 10 7 8 8 11 7 5 1 354 348 342 340 339 338 336 334 331 329
321 320 315 327 330 329 329 315 326 332 335 333 338 331 329 329 327 326 328 317 311 315 301 7 352 351 353 356 359 2 3 2 4 4 5 3 1 359 357 352 346 345 341 337 336 333 330 326 325
321 312 316 313 328 328 329 317 331 330 325 323 322 316 316 319 324 322 322 317 298 239 248 321 335 345 349 348 348 351 353 356 358 357 1 358 357 355 354 352 349 345 339 335 333 331 329 326 323
314 311 314 311 318 319 314 307 315 314 311 304 302 298 298 300 307 316 320 314 315 307 298 312 330 341 347 349 348 347 350 350 353 356 355 353 352 351 351 350 348 345 339 336 335 331 332 327 323
316 310 310 309 312 312 312 305 311 308 312 303 294 287 274 273 302 308 314 318 313 312 301 298 313 338 353 349 347 345 342 344 349 349 350 351 349 349 349 349 346 343 339 336 335 333 331 329 328
313 310 308 309 312 310 307 275 293 310 315 315 312 303 273 274 287 294 302 309 306 304 290 279 279 310 333 343 344 342 341 343 344 345 346 347 346 346 346 345 344 342 338 336 334 332 330 329 328
307 306 309 309 310 312 306 298 306 319 320 319 317 315 313 277 259 264 282 290 298 293 279 260 253 261 308 337 344 341 342 341 338 340 341 342 344 344 344 344 342 340 338 335 335 332 329 326 327
302 309 308 308 308 306 317 304 303 310 311 316 314 313 308 301 272 267 278 288 292 292 291 278 262 265 293 319 329 330 329 330 333 336 339 340 341 341 342 341 340 339 338 335 334 333 329 326 321
305 314 312 311 308 308 311 308 309 314 313 313 312 306 305 294 273 267 277 284 290 290 282 266 265 273 291 298 313 321 325 326 330 332 333 335 337 337 337 337 336 334 335 334 332 330 326 323 319
312 311 311 310 308 299 305 301 307 313 319 319 319 316 308 301 279 280 285 288 288 293 290 279 274 282 290 298 306 315 321 325 326 327 329 331 331 331 332 333 331 331 330 330 329 326 323 321 318
303 304 302 302 301 299 310 302 300 317 314 318 314 314 312 303 292 287 287 289 290 292 292 285 279 281 289 296 303 310 317 321 322 324 326 328 328 327 326 327 326 326 327 326 325 321 319 318 316
289 293 294 299 302 305 311 302 311 316 315 311 308 307 307 304 292 287 287 289 290 291 292 285 277 279 286 291 297 306 312 317 320 321 324 325 324 324 325 322 322 322 322 322 320 317 316 315 314
294 287 297 294 299 299 299 301 304 305 307 306 310 316 311 307 294 287 286 289 289 289 287 279 279 281 286 290 297 303 311 315 318 320 322 323 323 322 321 320 318 318 318 317 315 313 312 311 310
291 299 294 294 294 294 298 301 303 311 313 312 316 318 319 314 305 292 285 287 289 288 287 284 283 285 290 296 301 305 311 315 318 320 320 321 321 321 321 320 319 318 317 315 312 310 309 307 307
287 286 292 295 292 293 294 296 311 316 317 317 320 321 319 314 309 297 291 291 292 292 288 284 284 287 292 298 303 307 312 316 319 320 320 320 321 322 321 321 320 319 317 315 311 309 306 302 300
285 284 279 284 290 290 292 288 313 318 319 315 313 315 315 313 308 301 294 291 292 291 286 283 286 290 295 301 306 309 314 317 319 320 321 321 321 323 323 323 322 321 319 316 312 308 306 300 296